Terminal Aerodrome Forecast
Issued by NWS Pueblo, CO

Home | Current Version | Previous Version | Text Only | Print | Product List | Glossary On
Versions: 1 2 3 4 5 6 7 8 9 10 11 12 13 14 15 16 17 18 19 20 21 22 23 24 25
000
FTUS45 KPUB 291348 AAB
TAFALS
TAF AMD
KALS 291348Z 2914/3012 13006KT 2SM -SN BR SCT005 BKN035
      TEMPO 2914/2916 1/2SM SN BKN005 BKN015
     FM291900 36012KT P6SM VCSH SCT025 BKN035
     FM292300 34010KT P6SM SCT030 BKN040=

USA.gov is the U.S. government's official web portal to all federal, state and local government web resources and services.